Theta_e
328 329 327 326 327 329 332 332 330 333 333 334 333 334 335 334 335 335 337 338 337 336 335 331 328 329 329 328 327 328 330 332 333 334 335 335 335 336 335 333 332 333 334 332 331 334 332 333 333 332 331 332 333 332 331 332 331 330 329 328 329 326 326 329 329 330 327 325 326 325 326 328 329 329 326 326 327 328 328 328 329 330 330 330 330
325 323 325 325 326 329 331 330 330 328 329 332 330 332 336 336 336 336 338 337 336 336 335 333 332 330 328 327 328 329 330 330 330 332 332 334 333 333 334 333 333 333 334 333 333 332 332 333 332 331 331 332 332 333 333 333 331 330 330 328 329 327 325 328 329 327 322 322 320 319 321 323 326 325 326 327 327 328 328 327 326 328 331 330 331
320 323 322 323 325 328 328 328 327 327 328 329 331 332 334 336 336 336 336 336 335 336 335 334 334 332 329 328 329 329 331 331 332 332 333 333 332 332 332 332 333 334 334 335 336 334 334 332 331 331 331 332 330 330 330 330 329 329 330 328 326 324 326 328 328 323 320 321 321 319 316 315 317 320 324 325 328 327 328 329 330 331 331 330 330
318 321 320 321 323 325 326 325 325 326 327 328 330 331 331 334 336 336 334 334 335 335 335 335 335 334 332 330 330 329 328 332 331 331 331 332 331 333 333 332 332 332 333 334 336 337 334 332 332 330 332 332 330 329 329 328 327 327 328 328 326 323 321 324 327 327 324 322 315 312 315 316 314 314 316 322 326 328 327 327 329 330 330 331 329
317 319 320 320 320 323 325 325 325 325 327 328 328 329 330 330 332 333 334 332 332 335 335 335 334 332 332 332 332 331 331 331 330 329 330 331 332 332 331 332 333 332 333 334 335 336 335 335 333 332 332 333 331 329 329 327 327 328 330 329 326 324 323 321 324 327 326 325 319 316 312 311 312 314 318 318 324 325 327 328 327 329 328 328 326
317 319 320 322 322 324 325 325 324 325 327 328 330 330 329 329 331 330 330 331 334 335 335 334 332 332 330 328 328 328 327 328 328 328 329 330 331 333 333 334 334 334 334 334 336 335 334 334 333 333 333 333 331 330 329 329 327 327 327 329 327 327 326 323 322 325 327 328 325 321 317 311 314 318 316 311 321 324 324 328 327 327 327 326 321
318 319 320 322 324 324 324 323 323 324 327 329 329 329 328 328 331 331 333 335 335 335 335 333 331 331 330 329 329 328 327 328 329 330 331 331 331 331 332 333 335 334 334 334 335 334 334 334 333 332 333 332 331 329 327 327 328 328 329 328 328 329 327 323 323 323 325 325 327 327 326 324 322 319 311 314 312 317 321 321 321 326 326 324 319
319 319 321 324 326 325 324 325 325 326 328 327 327 328 327 327 330 332 336 335 335 335 334 333 331 331 330 329 329 327 326 326 328 329 329 330 330 330 330 330 333 335 334 333 334 334 334 334 334 333 332 331 332 328 327 328 329 329 328 329 328 330 328 324 323 324 323 322 324 325 324 325 323 320 320 317 315 313 314 321 322 320 318 318 321
320 323 325 326 325 325 327 329 329 328 327 325 326 326 327 327 329 330 334 335 334 335 334 333 332 331 330 329 328 328 328 328 329 329 329 329 327 327 329 331 332 332 334 333 333 334 334 334 335 334 330 330 331 330 330 330 329 328 328 328 327 327 328 326 325 324 323 321 321 320 322 323 322 321 321 319 315 313 313 314 312 314 316 316 318
325 326 327 328 329 329 329 331 328 326 325 325 326 326 327 327 327 329 330 334 334 334 334 333 332 332 330 329 328 328 329 329 329 328 328 328 327 327 327 327 329 331 333 333 333 334 334 335 334 332 329 330 331 330 330 331 330 330 329 328 328 326 326 328 326 325 325 324 323 322 320 319 321 320 318 319 319 317 314 313 310 310 310 313 315
322 323 324 328 331 332 332 327 323 324 323 324 325 326 326 326 327 330 331 332 334 334 333 333 332 332 330 330 329 328 328 328 326 326 326 326 326 325 325 325 326 329 332 334 333 334 333 334 333 332 329 332 332 331 330 331 330 331 330 329 329 327 327 327 326 325 326 325 324 323 321 321 319 317 318 318 317 315 314 312 311 311 310 310 312
321 322 323 326 328 331 331 327 323 324 324 323 324 326 326 327 328 330 332 332 333 333 333 333 333 333 331 331 330 329 328 327 326 325 325 325 325 324 323 324 325 328 330 331 330 331 333 333 333 331 330 330 329 330 330 331 330 329 328 328 328 327 327 326 326 325 326 325 323 323 321 322 321 320 320 320 318 317 316 312 311 311 310 311 313
322 324 324 324 325 325 326 328 327 323 322 322 323 325 327 326 329 332 331 331 332 333 332 333 332 332 332 331 330 329 328 327 326 325 325 325 325 324 323 323 324 326 329 331 329 330 333 332 332 331 331 328 328 330 331 331 329 328 328 329 328 327 326 326 325 325 326 325 324 323 323 323 323 323 323 321 320 319 316 312 311 311 308 309 311
319 319 318 318 319 321 323 323 324 323 322 322 323 323 325 326 331 332 331 331 332 331 332 332 332 332 332 331 330 330 327 327 327 326 325 326 326 325 324 324 325 328 329 329 331 331 333 333 333 331 331 330 329 329 329 329 329 329 328 328 328 327 327 325 325 324 325 325 326 325 323 323 323 325 324 323 322 320 317 313 310 310 309 308 309
318 317 317 317 318 320 320 321 320 320 321 322 322 323 323 322 324 328 329 332 331 331 332 332 332 333 332 332 331 330 328 327 327 327 326 327 327 327 326 327 328 329 329 330 331 331 331 331 331 330 331 331 330 330 330 327 327 329 329 328 327 327 327 326 325 326 326 326 324 325 324 323 323 324 324 324 324 322 320 316 309 306 305 306 306
316 316 316 316 316 317 319 319 319 319 317 318 321 323 322 323 323 322 325 330 331 332 332 332 332 333 332 330 330 330 329 329 328 328 327 327 327 328 329 329 329 328 329 329 329 329 329 330 330 330 331 331 330 331 329 328 327 327 328 327 327 330 325 324 324 325 326 326 325 324 324 323 323 325 326 325 326 324 323 319 309 308 303 301 303
315 314 315 315 317 318 318 317 318 319 318 316 320 322 321 322 322 322 322 326 330 331 332 332 332 331 330 329 329 328 328 329 329 328 328 328 328 328 328 328 328 328 328 328 328 328 328 328 329 330 330 330 329 329 329 329 328 327 327 326 326 327 325 325 324 325 325 325 324 325 324 323 324 325 326 327 325 324 324 323 314 307 306 302 299
316 316 316 316 317 316 318 319 320 319 321 321 320 321 323 323 323 324 323 322 323 325 328 331 331 331 329 328 328 327 328 329 329 329 329 328 328 328 327 327 326 327 328 328 327 326 327 332 327 328 329 329 328 328 328 327 327 326 325 326 327 326 324 324 324 324 323 324 323 323 324 324 325 325 325 327 325 324 323 323 320 311 306 304 301
314 315 316 316 316 316 317 318 320 321 321 322 324 324 324 323 325 324 325 326 327 325 327 327 329 332 330 329 328 327 329 329 329 329 329 328 327 326 326 326 326 326 326 325 324 324 324 326 326 326 328 328 328 328 327 328 327 325 326 325 326 325 323 323 323 324 322 324 322 323 323 323 325 324 326 327 326 324 323 324 321 317 312 306 304
312 313 314 314 314 314 315 316 318 319 321 322 323 324 324 326 326 326 327 329 328 326 326 326 327 332 330 330 328 328 329 328 329 328 327 327 327 327 326 325 325 325 325 324 323 324 324 325 325 325 326 326 327 328 328 327 325 325 325 324 324 325 324 323 323 323 326 324 323 323 324 324 324 325 325 326 324 324 324 322 321 318 314 310 306
310 311 311 311 311 311 312 313 314 317 320 321 321 322 323 324 324 325 324 325 326 327 327 326 327 329 330 328 327 327 327 328 328 328 327 327 326 325 325 325 325 324 324 324 323 323 322 323 325 325 325 325 325 326 327 325 324 324 324 324 324 325 325 322 322 323 325 326 325 325 324 325 325 325 325 324 324 323 323 322 320 318 317 314 306
308 308 307 308 308 308 310 310 311 312 314 318 319 320 323 324 325 325 325 325 326 328 328 327 324 325 327 325 326 326 327 328 327 327 326 326 325 324 324 324 323 323 323 323 321 322 322 322 323 323 323 325 325 325 326 327 326 324 323 325 324 325 324 322 321 322 323 326 326 325 325 324 325 324 323 325 324 322 322 321 320 319 316 313 308
306 306 306 306 306 306 307 308 309 310 311 313 319 320 321 323 323 323 323 324 325 325 328 326 324 324 324 325 326 326 327 326 326 326 325 325 324 324 324 322 322 322 322 322 321 320 320 321 320 321 322 323 324 323 324 326 326 325 324 324 324 324 322 322 322 322 324 326 325 324 324 325 326 323 323 323 323 321 321 320 319 317 315 311 309
304 304 304 305 305 305 305 305 307 307 309 310 313 318 322 321 322 322 322 324 324 324 326 325 324 324 323 324 325 325 325 325 324 324 324 324 324 323 323 322 322 322 322 319 319 318 319 320 321 321 322 322 322 322 322 324 325 325 325 325 325 324 323 323 324 324 326 326 324 323 323 324 324 323 322 321 321 319 318 316 314 313 312 309 310
302 302 302 303 303 303 303 304 305 306 307 308 309 311 315 319 320 320 321 323 322 322 324 324 324 323 323 323 323 324 324 324 323 324 323 323 323 323 322 322 321 321 319 318 318 318 320 320 321 320 321 321 322 321 321 321 323 323 323 325 325 325 323 322 323 323 328 325 324 323 324 323 322 321 319 320 320 317 318 316 314 310 309 310 313
300 300 300 301 302 302 302 302 304 305 305 306 307 308 310 311 314 320 320 321 321 322 323 323 323 323 323 322 322 322 323 323 323 323 323 323 322 322 321 321 321 318 317 317 318 318 320 320 319 319 319 317 317 318 318 319 319 321 321 320 322 323 321 321 321 323 325 324 324 324 323 321 321 321 320 318 320 317 317 315 314 311 308 309 312
299 299 299 300 301 300 301 302 302 303 304 305 306 305 306 308 310 312 317 321 322 322 323 321 321 322 321 321 322 321 322 323 323 323 323 323 322 321 320 320 319 317 317 317 317 317 316 315 314 314 313 312 311 310 311 313 316 318 319 319 318 319 320 319 320 324 324 323 324 324 323 323 323 322 321 320 319 319 318 315 316 313 308 309 311
299 298 298 298 299 300 300 301 301 302 302 303 305 304 304 305 306 309 311 320 323 322 322 321 321 321 321 321 322 323 323 323 324 324 323 322 322 321 320 319 318 317 317 316 316 317 315 315 313 311 310 308 307 306 305 307 313 317 317 317 317 316 316 317 320 320 321 322 321 321 322 323 323 322 321 318 317 317 317 313 314 315 310 306 308
297 297 297 298 298 298 299 300 300 301 301 301 302 302 303 304 305 306 309 311 317 320 321 321 321 320 320 321 322 322 323 323 324 323 322 321 321 320 319 317 317 317 318 316 317 317 314 312 311 309 307 306 304 302 301 301 305 313 318 317 316 317 316 315 316 317 319 320 319 320 320 320 321 316 311 311 314 315 313 310 311 314 314 314 312
296 296 297 297 297 298 298 299 299 300 300 300 301 301 301 302 302 304 306 309 313 318 320 320 320 319 319 321 322 320 321 322 322 322 321 321 320 318 317 316 317 316 314 316 316 315 313 309 307 305 303 302 300 300 298 297 298 305 314 318 317 316 315 315 315 315 314 316 316 315 317 316 310 308 305 302 302 305 309 310 310 310 310 312 311
296 296 296 297 297 297 298 298 298 299 299 300 300 300 300 301 302 302 303 306 311 315 319 320 321 320 320 321 320 320 321 320 320 320 320 321 319 317 316 315 314 314 316 316 316 313 311 308 305 303 300 299 297 297 294 292 294 296 309 314 316 316 315 314 314 314 312 311 310 311 310 313 312 310 304 300 299 299 300 302 304 308 311 310 308
295 296 296 296 296 297 297 297 298 298 299 299 299 299 300 299 301 301 302 304 305 306 308 312 317 320 319 320 319 320 320 320 320 320 319 319 316 315 314 314 314 315 315 314 312 310 308 305 302 300 298 297 295 294 292 293 293 293 298 309 314 315 316 315 314 315 313 310 309 312 315 316 315 314 311 306 302 298 296 297 297 299 300 301 304
295 295 295 296 296 296 297 297 298 298 298 298 299 298 298 299 300 301 302 302 302 303 303 305 307 315 319 320 320 320 319 319 319 319 319 319 317 317 316 316 315 314 312 310 308 306 303 301 299 297 295 295 294 293 292 293 293 293 293 305 317 316 315 315 314 316 315 314 314 314 311 310 309 312 312 314 308 304 299 297 297 297 298 299 299
294 295 295 295 296 296 297 297 298 298 299 299 299 298 298 299 300 300 300 301 301 301 302 302 304 305 310 318 319 319 317 317 318 318 318 318 317 316 315 314 313 312 309 307 305 302 301 299 297 296 294 294 293 293 292 292 293 294 294 303 316 315 316 316 316 318 318 317 315 312 308 303 300 299 300 306 314 316 315 315 315 314 312 306 298
293 294 294 295 295 295 295 296 297 298 299 299 298 298 298 298 299 299 299 300 300 301 301 301 301 303 304 306 313 314 314 314 315 314 315 314 314 313 312 311 310 309 307 305 302 301 300 299 297 295 294 293 293 292 291 292 293 295 299 304 314 317 317 317 318 319 318 316 311 306 301 297 296 296 297 298 308 314 314 314 314 315 315 316 314
294 294 294 295 295 295 295 295 298 298 298 298 298 299 298 297 298 298 298 299 299 300 300 301 301 302 302 304 305 307 307 307 307 308 308 308 310 311 310 309 309 308 307 305 303 301 299 297 296 295 294 292 292 291 291 293 294 296 300 308 312 316 315 312 310 311 314 312 305 300 297 295 295 295 295 295 300 308 307 306 306 307 309 313 311
295 295 295 296 296 296 296 297 296 297 297 297 298 298 298 297 297 297 298 298 298 298 299 300 300 301 302 302 303 304 304 304 305 305 305 305 305 306 306 307 306 306 306 305 302 301 300 298 297 295 293 293 293 292 291 293 295 297 301 307 308 310 309 304 302 301 302 303 301 299 297 295 294 294 293 293 295 299 300 299 300 301 301 307 305
295 295 296 296 296 296 297 296 295 295 296 297 297 297 297 297 297 297 297 297 297 298 299 299 299 301 301 302 302 303 302 303 303 303 303 304 304 304 304 304 304 303 303 303 303 303 302 300 298 296 295 293 293 293 292 293 294 296 299 302 302 304 304 302 299 298 297 298 300 302 300 294 293 293 291 292 294 297 298 298 298 298 296 301 301
295 295 295 295 296 297 297 296 295 294 295 296 296 297 296 296 296 297 297 296 296 297 298 299 299 300 301 301 302 302 302 303 303 303 304 303 303 303 304 305 304 304 303 303 302 302 302 302 300 298 298 294 293 294 292 292 293 294 297 298 299 301 301 301 300 299 297 295 294 296 297 296 294 293 290 291 292 296 296 297 297 297 295 296 296
295 296 296 297 297 296 296 296 295 295 295 296 296 296 297 296 296 297 296 296 296 297 298 299 299 300 301 301 301 302 302 302 302 303 304 304 304 304 304 304 304 304 303 303 303 302 301 300 300 298 296 294 293 293 293 292 293 293 294 297 297 298 298 299 302 301 298 296 295 294 294 290 290 290 290 290 289 291 295 295 295 294 294 295 294
295 295 297 296 296 296 295 296 296 296 296 296 295 295 295 296 296 296 296 297 299 299 299 299 299 299 300 300 301 301 301 302 302 302 302 303 304 304 304 304 304 304 304 304 303 303 300 298 298 297 296 296 295 294 293 292 292 293 293 294 296 296 296 296 296 297 299 297 295 294 294 292 290 290 290 290 290 290 291 293 293 295 295 293 292
296 296 296 296 296 295 296 296 297 297 297 296 296 295 294 294 294 294 295 298 300 299 299 299 299 299 299 299 300 300 301 302 302 302 301 301 303 304 305 305 305 304 304 303 302 301 299 298 297 296 296 295 297 298 295 292 292 292 292 293 295 295 297 298 297 297 297 298 297 296 294 292 291 291 291 291 291 291 290 293 292 292 290 291 292
296 295 296 296 295 295 295 295 297 297 297 297 297 296 296 296 295 295 296 297 297 298 299 298 299 299 299 299 299 299 300 301 301 301 301 300 301 302 302 303 304 305 304 303 302 301 300 299 297 297 296 296 295 296 294 294 292 291 291 291 291 293 293 299 299 298 298 298 298 297 297 294 291 291 290 290 291 290 292 293 292 290 290 289 290
297 298 297 296 295 295 295 296 296 297 297 297 297 296 296 296 296 298 298 298 297 297 297 298 298 299 299 300 300 300 300 300 300 300 300 299 299 300 299 300 301 301 301 302 302 302 301 299 298 297 296 296 296 295 294 293 293 291 291 291 290 289 291 297 299 298 297 296 295 294 294 291 291 291 290 290 291 291 291 291 290 290 290 290 292
295 296 297 297 295 294 294 294 295 295 296 297 297 296 295 295 297 298 298 299 298 297 297 297 297 299 300 301 300 300 300 300 300 300 298 298 297 297 297 298 299 299 299 299 299 301 301 301 299 297 296 296 297 296 296 294 293 293 292 291 291 289 289 291 296 296 295 295 292 291 291 291 291 291 291 292 293 294 292 291 291 290 294 293 293
296 296 297 297 296 294 293 293 293 294 295 296 297 296 295 295 297 298 298 298 298 298 297 297 297 298 299 299 299 299 299 299 300 300 298 297 296 296 295 296 297 297 298 297 297 297 298 298 299 297 296 295 295 295 294 294 294 294 293 292 292 292 292 291 293 293 291 292 292 291 292 292 292 293 293 292 292 293 291 293 294 295 294 292 293
295 295 295 295 295 293 292 292 291 293 294 295 296 296 296 297 297 298 298 298 297 296 296 296 296 297 298 298 297 296 296 297 298 299 298 297 296 295 295 294 295 295 296 296 296 296 296 296 295 294 294 294 293 293 292 292 292 292 293 294 294 293 293 292 292 290 291 291 292 293 292 291 293 293 292 292 293 293 294 295 295 294 294 294 294
294 294 294 293 293 293 293 293 293 293 294 294 295 296 297 297 297 298 298 298 297 295 295 295 296 296 296 297 295 291 293 294 294 294 295 295 294 294 294 293 293 294 294 294 294 294 295 295 295 294 293 293 292 291 290 289 289 290 291 292 292 291 290 290 288 288 289 291 292 292 293 295 294 294 294 294 294 294 293 292 294 294 294 294 295
294 294 294 294 293 293 294 293 293 294 294 293 293 295 296 295 297 297 297 297 296 295 295 295 295 294 294 296 296 294 294 293 292 292 291 291 292 293 292 291 291 292 293 294 293 294 294 294 293 293 292 291 291 290 290 288 288 287 287 289 289 288 288 288 288 286 288 290 290 291 291 292 292 289 289 291 292 292 290 292 293 293 293 293 293
294 294 294 294 294 294 294 293 292 294 293 293 293 294 295 296 296 297 297 296 296 295 295 294 294 294 293 294 296 295 295 293 293 292 292 291 288 289 290 291 290 289 288 289 290 292 294 293 292 291 292 292 290 291 288 287 288 288 288 288 288 288 287 288 287 287 287 286 284 287 288 289 289 289 289 288 287 288 288 289 289 289 290 291 290
294 294 294 294 293 293 292 293 292 293 292 292 292 294 295 297 297 296 296 296 295 294 293 292 293 293 292 293 294 294 295 293 293 292 292 290 291 290 288 288 289 289 288 288 288 289 290 291 292 290 289 289 288 288 288 288 288 288 288 288 288 287 287 286 286 286 286 285 286 288 288 288 288 288 288 288 288 287 287 287 287 287 288 288 288
Wind_Speed
8 13 17 16 13 11 10 9 8 6 7 2 3 1 8 7 7 7 6 8 8 8 9 10 8 4 1 1 2 3 5 5 4 4 4 4 4 4 4 5 5 6 6 6 6 5 4 4 3 4 1 3 4 5 5 6 5 6 7 4 7 6 4 6 6 7 9 6 6 5 5 3 2 3 3 2 3 3 3 4 2 3 3 3 3
10 8 13 15 12 14 13 10 11 10 8 4 2 4 7 9 7 7 6 7 8 9 9 9 9 8 6 6 3 4 5 5 5 4 4 4 5 4 3 4 5 5 6 6 5 5 4 5 4 4 4 2 4 5 5 6 6 4 4 5 3 6 5 7 8 9 4 7 7 4 5 4 2 3 1 1 2 2 3 2 2 1 1 4 4
6 7 9 14 17 16 13 11 10 10 11 8 2 3 7 9 8 7 6 7 7 8 9 8 7 7 6 5 6 4 1 2 4 4 3 4 4 4 3 4 4 4 5 5 5 6 6 6 5 3 5 5 5 6 6 6 5 5 4 5 6 2 4 4 7 2 6 5 5 6 3 3 1 2 2 1 1 1 2 2 1 1 1 2 3
10 12 11 12 14 14 14 12 10 10 9 8 5 10 8 7 11 9 6 5 7 7 7 7 9 8 5 5 5 2 2 4 4 3 3 3 5 5 3 4 5 5 4 4 4 6 7 7 6 6 6 5 6 6 5 5 4 4 3 5 6 7 3 4 4 1 5 10 5 2 4 4 5 3 1 1 2 1 2 1 0 2 1 0 4
11 8 9 10 11 10 12 11 12 12 11 12 12 9 7 9 10 11 6 3 2 7 6 6 9 8 6 4 3 2 2 4 6 6 4 5 5 4 5 5 5 5 5 5 4 6 6 6 7 7 5 5 5 6 6 5 5 5 5 6 6 7 6 3 4 2 4 2 6 6 3 2 3 4 4 1 1 1 0 1 2 2 2 1 3
16 14 14 12 11 11 12 13 12 11 13 14 13 12 10 7 10 12 12 6 6 6 6 8 9 10 10 9 8 6 6 6 9 9 8 8 8 5 5 5 5 4 5 5 4 5 6 6 6 6 5 5 5 5 5 4 4 4 4 5 5 4 8 6 4 2 2 1 2 3 5 5 7 6 4 2 1 0 1 0 2 2 0 2 2
6 6 6 9 12 14 13 14 13 13 13 12 12 12 12 11 9 12 14 11 9 7 7 8 8 9 11 10 10 10 9 5 4 5 6 6 6 6 6 4 5 5 4 3 5 5 5 5 5 5 5 3 3 5 6 5 5 5 4 4 6 5 6 7 7 6 1 0 0 1 1 1 8 9 4 5 3 2 1 1 2 4 4 2 4
11 11 12 10 13 16 16 16 16 15 15 11 11 9 11 11 10 9 10 13 11 10 9 8 9 8 8 8 8 8 8 8 7 6 5 6 7 6 5 4 4 5 5 4 5 6 6 5 5 5 5 4 4 4 6 5 4 4 5 3 3 4 7 7 7 6 6 3 0 0 1 4 7 3 5 6 6 7 1 2 2 3 2 5 6
5 9 8 8 7 3 8 11 11 14 10 10 10 9 8 9 11 8 7 14 14 14 12 9 8 9 9 8 8 6 7 7 6 6 6 5 6 5 5 5 4 4 5 5 5 5 5 6 6 6 8 7 5 3 4 7 6 6 5 5 5 5 5 5 6 7 5 5 3 2 3 5 4 4 5 3 4 6 2 2 2 2 7 4 6
8 7 6 7 10 9 4 5 8 3 5 7 8 9 9 8 9 10 6 6 14 15 12 10 9 9 8 9 10 8 8 7 7 7 6 6 6 6 5 5 5 5 5 6 6 6 6 5 5 6 11 9 5 3 2 5 3 5 5 7 5 5 4 6 7 6 4 4 3 5 4 4 5 4 3 4 3 2 8 6 3 7 8 1 3
9 7 4 4 7 11 10 10 5 2 4 3 6 8 7 8 8 9 8 4 9 14 12 10 10 9 8 11 11 11 11 10 9 7 6 6 7 6 5 5 4 5 4 5 6 5 5 5 5 6 7 4 6 6 4 6 7 6 5 6 7 7 6 5 5 5 5 5 3 5 6 7 7 5 7 5 5 4 6 5 3 3 5 6 2
6 6 3 4 4 6 9 13 12 4 1 2 1 0 2 4 6 8 9 9 9 12 12 10 10 10 7 11 11 11 12 10 11 11 9 9 8 7 4 5 5 4 3 4 5 3 3 5 4 8 8 7 7 4 3 4 5 3 5 3 5 5 4 5 6 7 5 5 4 4 4 3 4 6 6 6 6 6 7 7 6 4 3 1 3
11 8 6 8 7 8 4 6 10 9 5 5 10 9 5 2 6 9 9 10 10 10 11 10 10 10 9 11 10 10 10 11 11 10 8 8 7 7 6 6 5 5 5 6 5 4 3 5 5 8 8 8 10 9 8 7 5 3 4 3 5 6 6 6 7 7 7 7 6 3 4 3 5 4 5 6 5 6 7 7 4 5 4 3 2
10 9 9 9 8 7 6 7 8 7 4 4 6 0 4 7 5 7 9 9 9 10 10 10 10 9 8 10 10 10 10 10 9 9 8 7 7 8 8 7 7 6 6 7 8 8 6 5 6 8 7 9 10 8 8 7 6 6 4 2 4 5 5 6 6 6 5 5 5 6 4 5 5 5 5 6 6 7 7 7 6 2 4 6 2
10 9 9 8 8 8 7 6 6 6 5 2 2 1 3 3 10 8 6 9 9 10 10 10 10 8 8 10 10 9 10 9 9 8 9 8 8 8 7 7 6 7 8 7 7 8 6 5 5 7 7 8 11 10 7 4 5 5 3 4 4 5 5 5 5 7 6 5 4 5 6 5 5 5 6 6 5 6 6 6 7 7 3 2 3
10 9 9 8 8 8 8 9 7 1 1 2 3 4 7 9 4 8 10 8 7 9 9 10 9 8 9 10 11 10 9 9 9 8 8 9 9 9 8 8 7 7 7 7 7 7 7 6 6 6 8 8 8 10 9 6 3 4 5 5 5 3 6 4 4 5 6 6 6 5 5 5 5 5 5 6 6 6 5 5 8 8 9 5 2
10 10 8 8 9 7 5 1 1 0 2 4 5 4 5 6 7 5 9 10 6 6 9 9 8 9 9 10 10 10 11 11 10 11 11 9 9 9 8 8 8 7 6 5 7 6 6 7 6 6 7 8 8 8 8 6 5 6 6 6 4 4 5 6 5 6 6 6 5 6 7 6 6 4 4 5 5 4 5 5 6 9 8 8 5
10 8 8 8 7 8 8 7 7 1 2 4 5 3 3 3 2 2 4 7 7 9 7 9 10 10 10 10 10 11 10 10 9 11 10 10 8 7 7 8 8 7 6 6 6 5 5 5 6 7 8 7 8 8 9 7 6 4 3 5 4 5 5 4 4 4 5 4 4 3 4 5 5 5 6 5 5 6 6 5 5 5 5 10 6
10 10 10 10 10 10 8 5 4 5 3 3 1 1 3 2 0 2 3 4 4 7 10 6 7 8 8 9 10 10 9 8 8 10 9 10 9 8 9 8 8 7 7 6 6 5 6 7 6 7 8 8 7 8 9 8 7 6 5 5 5 5 5 5 4 4 3 3 3 4 3 3 4 5 5 5 5 5 6 5 4 5 3 6 7
10 10 10 11 12 13 14 15 12 7 6 3 1 3 5 4 3 1 2 2 1 7 10 7 9 7 9 8 8 8 8 9 8 10 10 11 10 10 10 9 8 7 7 6 5 5 6 7 6 6 7 7 8 8 8 7 7 7 7 6 6 5 5 5 6 5 4 4 4 5 5 4 4 4 4 5 5 5 4 4 4 5 4 4 6
10 10 12 14 15 16 17 16 16 15 7 4 4 3 2 2 4 6 7 7 6 5 9 9 8 6 8 7 7 7 8 8 8 10 11 10 10 10 9 8 7 7 7 6 6 6 6 7 7 7 6 6 8 8 8 6 4 6 6 6 6 6 5 4 4 5 4 5 6 5 5 4 5 6 5 4 5 4 4 4 1 1 2 4 6
11 13 16 15 15 16 15 15 16 15 17 13 3 3 4 5 4 6 6 5 5 4 8 6 4 7 5 4 6 6 7 7 7 10 10 10 11 10 9 9 8 8 6 7 7 6 6 6 7 6 6 6 5 7 8 8 7 5 5 5 6 5 6 4 3 5 5 6 6 5 4 5 6 6 5 5 5 5 4 4 2 2 5 5 7
15 15 15 15 15 14 13 14 15 15 13 15 10 3 3 4 5 5 7 3 5 6 3 3 3 9 6 3 5 5 6 6 7 7 9 10 10 9 9 11 9 7 5 6 6 6 6 6 5 6 6 6 6 5 6 8 8 7 6 6 6 6 7 7 6 5 5 5 6 5 5 5 5 5 5 5 4 4 4 4 5 3 4 5 7
16 16 15 14 13 13 15 16 15 14 13 13 12 11 4 5 5 5 6 7 8 7 5 6 5 7 11 5 4 4 5 5 6 7 9 8 9 8 10 11 9 6 8 6 5 5 5 8 7 7 7 6 6 4 5 7 7 8 7 7 6 6 6 7 7 7 6 6 6 5 5 5 5 6 5 5 3 3 4 3 3 3 5 5 5
14 14 14 14 16 16 14 12 12 12 12 12 13 12 11 8 3 3 2 3 7 5 4 5 4 2 5 11 5 6 7 6 7 8 9 8 7 8 8 9 8 9 8 7 5 4 7 8 7 7 7 7 6 5 4 5 5 6 7 7 7 6 6 6 6 6 7 6 6 5 5 5 4 5 4 4 2 2 4 4 4 3 5 5 6
13 13 15 16 13 12 13 14 11 11 11 12 13 14 13 12 11 9 4 2 3 5 2 3 5 5 5 8 7 6 6 6 7 9 10 9 8 7 7 6 8 10 8 7 6 5 8 7 5 5 5 4 4 4 3 2 3 5 5 5 7 7 7 7 5 5 6 6 7 6 5 5 5 5 4 2 0 2 3 3 3 4 5 5 6
13 13 12 12 15 16 15 14 13 13 13 12 12 12 12 13 13 11 11 3 3 3 3 3 5 4 2 1 11 4 5 5 7 8 8 8 8 7 7 7 8 9 7 6 6 6 5 10 9 9 7 6 6 6 6 4 3 3 4 4 5 6 6 4 5 8 6 5 7 7 7 6 6 5 4 3 2 2 1 1 1 1 5 5 8
12 13 14 14 14 14 15 16 16 15 14 13 11 11 11 11 10 11 10 8 4 3 3 2 2 2 1 3 4 11 4 5 6 8 7 7 7 8 7 7 8 8 6 6 7 10 10 9 9 9 7 6 7 7 7 6 5 4 4 4 4 4 4 4 6 5 6 5 4 5 5 5 5 3 4 3 3 3 4 3 3 3 2 4 6
15 14 14 14 14 14 15 14 14 15 16 15 14 13 13 12 11 10 10 10 9 3 1 3 2 2 1 2 2 5 9 2 8 8 7 6 7 7 8 8 7 6 6 8 13 13 12 11 9 9 7 7 8 6 5 5 5 5 4 4 4 5 7 8 8 7 6 6 4 4 4 3 3 7 7 6 6 6 6 5 4 5 4 6 4
14 14 13 13 14 14 14 14 14 15 15 14 13 13 13 13 12 12 11 10 8 7 2 4 5 3 2 2 3 2 2 8 3 4 6 5 6 8 9 8 6 6 7 11 12 12 11 10 10 9 7 7 7 4 5 7 4 3 4 4 3 4 4 6 8 8 6 6 6 4 4 9 10 11 10 11 13 12 9 6 5 6 4 6 6
13 13 13 13 13 13 13 15 15 14 15 13 12 12 11 12 11 11 12 11 10 9 4 2 4 3 3 4 3 2 4 2 4 6 0 7 7 8 8 7 7 7 11 12 11 11 10 9 10 9 9 7 6 4 8 7 9 9 5 4 2 1 3 4 7 8 7 6 5 5 5 6 7 7 8 11 12 13 12 10 9 9 6 6 6
12 12 12 13 13 13 14 13 13 13 13 13 12 12 11 12 11 11 9 9 9 10 9 8 6 4 5 5 1 3 4 6 4 5 2 3 8 8 8 7 9 11 10 11 11 10 9 9 9 9 9 6 6 7 8 8 6 8 6 3 4 2 2 3 3 6 6 6 6 7 5 5 6 5 4 4 6 7 9 10 10 9 9 7 6
11 12 12 13 12 11 12 12 11 11 12 13 12 11 11 11 11 11 10 12 10 10 10 11 12 9 4 6 3 3 2 3 4 2 2 3 7 8 8 10 11 10 11 12 10 10 10 8 9 10 9 7 6 10 9 9 9 9 8 5 6 5 7 6 4 6 8 7 7 8 7 6 5 10 8 5 4 4 5 6 7 7 5 6 5
10 10 11 10 10 10 10 11 10 11 11 11 11 10 9 9 10 11 12 11 13 14 14 12 12 13 10 3 5 6 4 3 4 4 5 4 8 9 10 10 10 11 12 11 11 11 9 9 8 9 9 7 7 9 10 10 10 10 9 6 4 5 6 5 7 9 9 8 7 8 7 7 6 8 8 7 4 5 5 5 6 5 5 5 7
10 11 10 9 9 9 10 11 11 11 10 10 11 10 10 11 11 12 12 12 12 14 15 14 13 12 13 14 3 8 8 6 5 5 8 7 8 10 11 9 10 11 11 10 10 10 8 8 7 7 9 8 6 9 10 11 11 10 10 7 4 5 7 9 9 9 9 9 9 9 9 8 8 9 7 7 5 5 5 6 6 6 7 7 8
8 9 9 9 9 9 8 8 7 9 9 10 10 9 10 11 11 12 12 13 13 13 13 15 15 13 14 13 12 9 11 10 10 10 11 8 5 10 11 11 12 11 10 10 9 9 9 8 6 8 10 9 7 12 12 12 12 10 9 6 5 7 10 10 10 10 10 9 9 9 9 9 9 9 11 15 11 7 8 8 7 6 7 6 7
6 7 8 8 7 7 8 7 8 8 9 10 9 8 10 12 13 12 13 13 14 15 13 13 14 13 14 14 13 11 11 11 10 11 11 11 8 8 8 9 12 10 10 10 9 8 7 8 8 8 9 8 8 11 13 13 13 12 10 8 8 10 11 11 9 9 10 10 9 8 8 8 9 9 10 13 12 11 8 8 7 7 6 5 6
8 8 8 8 7 7 8 9 9 9 7 6 8 8 10 12 12 12 13 14 15 14 12 12 12 11 14 15 15 13 10 13 13 13 11 9 9 8 9 8 11 11 11 9 8 9 8 8 9 8 7 9 7 10 13 14 15 15 11 9 8 10 10 10 9 9 9 10 10 14 10 9 9 7 10 13 13 10 8 6 6 5 6 6 6
8 8 8 8 7 7 8 8 8 8 7 6 6 8 11 11 11 11 12 14 14 13 12 12 12 11 14 14 13 13 10 11 14 12 10 10 10 9 8 10 10 10 10 9 9 9 8 8 7 7 10 10 8 9 13 15 16 14 11 8 8 9 10 8 8 8 7 7 7 9 12 10 8 6 10 10 10 8 5 4 3 3 3 3 3
10 10 8 7 7 8 9 10 10 8 5 6 5 6 8 9 9 10 12 12 11 11 10 10 10 10 11 12 11 12 11 12 14 12 10 9 8 8 10 11 10 9 10 9 9 8 9 7 6 7 7 8 10 9 12 16 15 15 13 9 7 9 8 7 6 7 7 6 6 6 6 9 10 10 9 9 8 8 5 3 3 3 3 3 3
10 11 9 9 9 9 9 10 8 8 7 6 5 5 6 7 8 10 10 8 7 7 8 9 10 11 12 12 10 10 11 12 12 11 9 10 9 8 10 10 9 8 8 8 8 8 9 7 6 6 8 8 8 9 11 15 16 15 14 11 8 8 6 7 6 7 6 6 6 5 4 6 8 7 7 6 6 5 4 3 2 2 2 1 2
9 10 10 9 9 11 11 11 10 10 9 7 7 6 5 6 7 9 6 4 6 8 9 10 11 11 11 12 12 13 13 12 12 11 10 10 9 8 7 7 8 7 8 8 8 7 7 8 7 6 7 8 8 10 9 12 14 15 14 14 9 6 4 7 7 6 6 5 4 3 3 4 6 5 5 4 3 2 2 1 1 1 4 5 2
9 10 11 10 9 10 11 11 10 10 9 8 10 10 8 7 8 5 5 5 4 5 7 9 10 10 10 11 11 12 11 10 11 11 11 11 10 11 11 10 8 7 6 6 5 5 6 6 7 6 5 6 6 7 11 10 12 13 13 13 12 9 9 7 7 7 5 4 3 3 1 3 6 6 6 6 5 3 2 1 1 2 2 2 2
7 6 7 9 10 9 9 10 9 10 10 9 9 10 11 11 11 6 5 5 6 6 6 6 7 9 9 9 9 10 10 10 10 10 11 11 10 10 10 8 8 6 5 4 3 4 5 6 7 6 5 5 5 6 9 11 9 12 11 11 10 10 9 7 7 5 4 4 4 3 3 5 6 7 6 6 6 7 4 5 2 2 3 3 1
7 7 7 6 8 8 8 8 8 10 9 9 9 10 11 11 10 9 9 7 5 7 7 7 6 5 5 6 6 7 7 8 8 9 9 9 10 10 9 9 8 8 7 5 3 2 4 5 6 7 5 4 5 6 7 9 13 12 13 12 11 9 9 9 7 4 3 3 3 7 8 8 7 6 5 4 4 4 6 7 8 9 4 1 2
5 4 4 3 4 4 5 6 7 7 8 8 7 8 9 8 8 8 8 7 7 6 6 6 7 6 7 7 8 7 8 8 8 6 7 6 7 7 7 7 7 6 7 7 6 7 6 5 6 5 5 5 5 5 5 6 7 8 9 12 12 12 9 8 7 6 7 6 6 7 8 8 8 6 4 5 5 6 7 10 13 10 5 5 4
2 1 1 1 0 2 3 4 5 6 6 7 7 6 6 6 7 7 7 7 7 7 8 8 7 6 5 6 6 6 7 7 6 6 6 6 5 5 6 5 4 5 6 6 7 7 7 8 7 6 5 5 5 5 5 5 5 5 5 6 6 7 8 7 5 6 6 5 6 6 6 6 6 8 9 8 9 8 9 8 7 7 6 7 7
2 2 1 1 2 1 0 2 3 3 4 5 6 4 4 5 6 7 8 6 5 5 6 6 7 7 5 4 6 6 7 5 6 6 6 5 5 4 5 5 4 3 5 5 6 6 6 6 5 5 4 5 5 5 5 5 5 4 4 4 5 5 5 4 5 5 5 4 4 5 7 8 8 8 8 7 7 7 7 7 6 6 6 6 7
4 2 1 0 1 2 0 1 2 3 4 4 5 4 4 3 4 7 7 7 6 5 5 6 6 6 5 4 5 5 5 5 5 6 6 5 4 4 5 4 5 4 1 5 7 6 5 4 5 4 5 5 5 5 3 2 2 3 4 5 5 5 5 4 5 6 4 4 5 7 7 8 8 7 7 7 7 8 7 7 7 7 7 7 7
5 3 2 2 2 4 1 1 2 3 3 4 6 4 4 5 4 4 7 7 7 7 7 7 6 6 7 6 3 5 4 5 5 5 6 7 9 11 6 4 4 7 11 10 5 5 5 5 7 4 3 5 4 2 1 2 3 4 4 4 3 4 4 4 6 6 3 4 4 6 7 8 7 7 7 7 6 6 6 7 6 6 7 7 7
4 3 2 1 2 4 4 3 2 4 4 4 6 3 5 6 6 5 6 6 4 5 5 5 6 6 6 6 4 5 5 4 5 5 5 4 4 7 10 10 7 8 9 11 11 10 9 7 7 6 4 7 7 4 2 1 4 4 3 2 2 4 5 5 5 4 5 6 6 9 7 7 6 7 6 6 6 6 7 7 7 7 7 8 7
Wind_Direction
121 127 130 139 150 146 158 144 150 136 100 110 264 253 125 136 139 147 158 149 144 144 142 139 145 179 239 222 215 180 152 153 159 156 166 151 136 131 138 133 125 117 120 133 132 131 133 133 152 118 195 235 126 129 138 120 120 137 133 161 141 131 111 123 135 122 113 86 77 85 75 65 69 89 90 93 103 116 107 106 126 129 141 133 144
128 123 126 132 144 151 154 148 150 149 120 96 176 256 125 137 145 159 159 153 153 152 150 152 162 173 177 175 179 199 160 160 164 172 177 138 131 118 115 138 134 137 141 141 134 136 142 130 123 112 210 156 101 114 119 124 131 138 140 141 136 137 129 151 148 123 114 138 134 107 66 47 68 74 78 91 116 117 112 116 106 63 166 164 151
144 153 143 143 148 152 153 155 160 140 116 97 294 235 168 142 143 155 166 158 160 156 155 158 157 161 174 166 180 184 137 114 166 169 153 139 130 150 147 146 135 133 140 149 142 161 155 145 138 140 215 141 124 130 130 129 146 152 165 152 125 67 103 156 173 143 138 125 114 104 134 99 18 11 1 72 65 123 123 109 104 105 211 165 149
183 170 166 156 152 152 156 157 141 119 112 100 192 199 194 168 143 148 171 172 167 167 162 156 152 152 160 165 178 158 133 132 118 132 136 126 139 153 158 149 145 154 162 159 180 162 158 159 145 171 197 148 155 139 142 138 144 152 158 134 134 125 126 185 209 184 142 139 142 160 157 122 123 233 190 330 58 55 90 105 245 188 200 157 151
185 172 164 161 152 155 144 142 131 130 141 153 191 190 206 177 140 134 140 220 200 166 166 149 140 138 135 129 119 80 69 107 128 148 165 159 157 163 167 163 159 164 171 178 186 159 156 153 155 171 164 161 160 144 153 164 158 172 171 142 157 148 145 156 217 217 165 179 136 120 104 143 202 162 149 1 39 18 352 196 245 241 160 173 158
176 182 182 168 134 133 137 137 139 154 155 174 181 184 188 177 152 153 146 183 191 164 158 149 149 148 141 143 154 166 165 164 169 167 167 170 175 169 161 169 160 164 173 191 168 147 153 159 154 158 163 169 173 146 136 135 168 172 178 147 162 175 149 151 165 200 177 147 144 159 160 168 158 160 126 176 289 246 193 283 288 285 186 212 166
197 168 150 146 145 144 147 150 162 163 183 174 173 187 178 166 168 161 157 163 154 158 157 150 147 152 154 157 160 165 169 183 167 164 163 161 156 168 169 161 163 167 180 169 154 154 161 169 163 155 160 145 138 134 140 152 180 181 176 165 172 145 142 155 167 170 105 15 6 178 154 163 144 149 176 128 112 323 7 19 310 240 235 186 163
183 178 184 172 152 155 158 164 168 173 185 163 177 182 171 162 158 177 172 152 150 152 159 161 156 158 155 156 160 161 171 171 171 163 157 156 159 165 158 164 163 162 172 173 157 160 169 176 171 170 127 113 186 163 159 142 170 175 181 162 142 159 165 162 166 165 161 184 36 100 35 125 141 103 144 150 136 141 186 322 281 281 212 152 149
44 42 46 48 50 61 152 163 158 178 175 165 171 173 170 167 161 167 219 155 149 154 159 168 165 166 162 160 160 165 162 159 154 155 156 155 148 154 155 163 175 175 175 181 175 173 178 181 180 170 110 171 208 183 169 137 167 189 174 149 178 177 166 164 159 172 153 164 129 65 90 110 111 117 134 113 134 131 111 188 215 61 79 83 126
77 85 94 105 112 113 117 90 147 183 200 170 161 161 168 169 166 154 225 196 146 151 159 165 166 169 165 164 160 158 151 149 152 158 155 153 154 161 160 162 176 187 183 185 181 181 183 185 176 148 133 172 174 152 177 124 167 209 178 161 163 173 162 162 172 169 154 158 162 154 123 112 99 93 103 114 73 106 153 172 167 126 120 147 139
80 72 62 85 130 132 131 114 78 255 279 197 162 166 167 165 164 155 177 222 151 150 157 165 167 177 170 162 161 156 155 153 152 160 155 154 160 165 164 173 176 186 172 169 175 173 181 181 176 137 120 153 136 151 176 159 180 200 183 161 158 172 172 161 151 154 148 155 159 156 157 157 163 155 159 153 145 138 117 130 130 129 133 127 183
91 93 58 29 79 115 120 126 147 138 242 337 357 106 172 162 161 162 169 176 166 157 160 164 170 179 171 160 158 158 156 157 161 166 170 167 165 162 150 151 181 193 164 128 153 155 173 174 172 109 142 132 116 126 136 184 156 200 179 176 143 143 150 149 145 148 149 148 159 157 160 147 118 135 160 149 143 149 145 147 143 135 98 122 160
29 27 43 45 34 29 35 107 124 124 98 40 349 337 324 264 192 176 174 175 172 164 162 166 171 181 172 161 159 157 158 160 165 165 170 164 156 143 160 171 182 174 175 154 186 175 183 150 135 121 144 138 137 146 166 183 146 188 202 174 145 155 161 158 159 164 155 157 167 154 148 135 137 146 138 141 135 136 141 144 155 145 137 158 184
26 27 24 27 29 52 39 30 41 49 81 129 145 177 324 325 271 197 180 183 177 169 165 166 175 181 174 164 162 158 158 163 164 164 166 165 157 163 170 171 175 180 172 166 174 176 170 154 133 125 136 128 129 137 163 174 152 174 188 166 155 158 150 162 165 158 153 155 147 141 155 153 151 151 148 137 147 139 149 152 147 126 135 159 163
19 16 19 18 20 25 26 39 55 63 46 338 227 200 135 293 317 277 217 194 186 175 168 171 175 178 170 164 163 156 159 165 167 167 165 166 168 169 171 171 171 168 161 164 156 158 154 143 137 125 118 120 127 145 159 178 166 160 169 149 143 150 153 150 158 158 153 150 151 154 150 152 163 163 154 163 163 167 153 156 144 136 130 143 167
21 23 12 14 11 2 7 4 349 328 86 69 273 234 205 182 186 326 299 226 205 177 178 173 175 174 170 167 168 157 160 165 167 168 169 171 170 171 169 169 163 153 153 151 151 146 142 144 140 136 135 133 129 135 144 160 155 168 158 159 159 148 142 140 164 157 153 158 164 156 145 170 171 171 168 171 180 175 148 143 151 151 147 166 192
25 13 12 9 3 22 26 30 145 230 248 236 257 259 212 222 182 181 309 314 247 205 183 180 176 173 176 176 170 164 164 167 170 169 168 171 168 168 155 152 142 138 140 135 136 134 140 142 138 137 128 135 137 137 139 150 174 185 159 155 149 149 147 153 162 162 165 155 165 165 168 167 175 173 180 186 193 175 165 153 156 160 158 148 164
26 24 16 12 9 13 9 351 335 7 136 155 203 235 13 28 343 103 181 265 332 298 246 205 179 175 179 179 175 171 170 166 164 163 160 156 153 133 128 125 128 127 120 116 116 124 125 131 128 132 138 140 141 140 131 148 180 171 143 151 150 160 145 137 152 143 150 143 151 157 159 170 168 168 187 195 193 191 171 176 162 187 168 158 169
23 29 31 24 17 6 359 357 9 349 20 60 14 135 123 122 31 327 283 248 216 259 269 263 212 179 179 181 176 173 170 165 158 147 143 136 132 129 123 124 117 113 112 110 108 112 102 124 128 128 140 145 145 141 142 161 167 152 154 147 147 160 154 152 152 148 169 156 159 174 182 186 176 179 186 188 185 183 186 180 157 144 196 158 154
18 24 30 29 23 17 12 8 8 17 7 354 74 62 60 82 120 173 233 310 308 245 267 246 241 192 180 181 181 173 166 161 147 139 134 132 130 127 125 121 126 121 123 124 128 130 122 128 136 133 136 139 148 142 145 159 162 155 165 165 163 161 160 167 154 159 163 175 181 189 188 197 184 176 181 181 190 192 188 193 171 147 174 165 160
19 20 26 26 21 16 13 11 10 7 2 3 7 39 60 90 90 73 48 17 326 242 252 259 246 226 178 180 177 168 163 150 142 140 135 133 130 130 130 131 126 133 140 138 146 145 140 139 141 145 146 139 145 149 151 162 172 152 160 179 164 162 161 189 161 164 180 180 190 192 189 186 170 173 179 182 183 197 193 212 147 118 189 143 172
19 18 22 25 19 14 13 11 12 11 1 347 0 348 31 40 76 86 86 55 350 243 225 254 278 271 183 176 169 171 157 149 144 143 136 135 136 135 134 129 133 144 138 145 148 148 151 149 149 151 146 144 142 144 149 156 165 164 160 172 171 161 160 176 179 180 183 191 182 182 183 173 169 161 175 176 184 180 193 205 228 184 235 161 188
12 17 21 24 20 16 13 15 13 10 357 352 345 352 33 33 30 68 99 120 89 24 3 77 0 315 304 181 165 167 158 151 145 142 139 139 140 136 132 133 136 145 137 130 136 144 143 138 130 138 137 141 142 145 140 149 155 162 169 179 174 173 168 167 182 194 191 187 166 171 177 169 159 161 180 194 170 181 190 193 218 210 221 180 189
14 12 17 19 18 15 17 13 11 4 356 353 353 351 50 61 39 32 60 90 76 45 50 67 37 344 317 288 163 165 159 153 144 144 142 143 139 135 136 136 144 136 133 134 126 131 104 114 113 108 116 128 134 138 136 152 157 162 170 178 179 182 177 173 178 184 184 173 170 155 175 168 157 163 187 198 199 180 200 199 219 213 211 183 165
16 16 16 16 20 20 17 11 8 359 353 351 356 358 359 6 37 23 12 80 118 125 124 116 106 138 278 283 206 171 167 160 152 147 143 141 136 136 137 140 130 130 133 133 136 114 122 116 119 127 128 135 149 152 155 162 165 169 171 172 177 180 185 185 182 177 170 165 161 155 159 155 144 157 188 200 227 204 217 203 237 227 214 167 161
20 18 17 17 18 18 17 13 5 2 358 355 356 359 357 359 359 349 355 25 67 101 98 135 157 178 208 279 250 176 163 161 153 149 147 143 141 138 139 132 126 129 133 133 134 123 132 133 121 95 82 75 73 89 106 114 152 177 176 165 171 179 180 182 177 174 161 158 153 149 148 144 151 166 175 143 118 214 216 218 254 249 213 148 144
24 23 19 16 19 18 16 15 10 5 1 0 1 359 357 354 351 352 344 10 42 94 121 154 152 188 196 7 298 238 161 158 151 152 148 143 141 142 139 130 130 127 133 134 135 133 86 85 88 84 74 73 67 57 52 38 45 90 149 162 152 169 178 150 172 169 157 148 154 154 151 161 169 173 131 132 131 63 172 147 23 219 214 151 139
26 24 21 21 20 18 15 13 12 9 6 4 2 2 358 354 349 344 345 346 29 51 25 337 287 274 175 136 294 292 221 155 154 149 149 145 139 136 129 128 127 125 130 127 105 90 94 88 84 87 79 78 72 56 39 21 23 35 77 100 93 99 100 128 155 130 132 152 160 149 155 172 159 129 122 155 129 109 88 88 13 24 144 144 137
26 22 20 20 20 18 16 14 13 11 11 8 6 1 357 354 350 349 345 344 332 340 28 311 295 276 255 179 176 322 296 238 153 147 145 145 138 126 125 129 126 125 119 108 103 104 98 93 80 80 79 68 67 57 46 23 5 7 29 64 74 90 97 98 100 117 139 143 152 148 147 151 105 94 123 143 120 124 120 90 49 65 78 101 83
22 22 20 21 21 19 16 13 12 15 13 10 7 4 3 0 355 352 351 335 335 321 352 337 318 265 246 204 141 149 317 316 296 137 141 139 126 124 127 126 123 120 111 95 104 103 102 103 99 81 71 65 57 49 28 30 21 347 5 24 54 84 101 111 109 114 121 137 148 138 134 129 117 123 128 113 106 102 103 113 117 98 90 88 95
22 21 21 23 24 21 19 17 16 13 12 10 7 7 1 0 356 354 355 344 349 355 317 229 260 245 167 164 156 160 109 50 340 342 322 133 124 129 123 119 116 96 87 98 100 98 98 96 94 91 74 66 53 22 21 38 30 19 18 30 25 40 89 112 122 128 135 128 117 107 94 95 102 108 108 113 117 114 111 107 98 97 110 119 106
23 21 20 21 23 22 18 17 16 15 15 11 7 5 5 3 356 358 350 350 10 7 359 356 321 224 167 135 143 167 125 128 162 154 283 121 132 126 120 111 97 94 94 94 92 94 95 93 91 86 76 63 55 18 25 50 49 41 37 16 35 32 49 54 75 114 132 128 107 85 68 57 50 54 82 73 66 74 108 119 117 108 94 82 104
28 26 25 23 23 21 19 18 20 17 16 14 12 11 10 6 4 357 6 20 19 17 9 3 356 319 181 150 168 195 104 99 122 126 102 110 111 107 103 98 101 102 97 92 95 92 88 86 88 85 75 55 49 12 18 34 42 36 24 39 52 79 75 84 89 97 112 101 97 88 75 49 31 33 37 38 79 72 55 65 93 89 82 93 92
34 34 32 27 25 26 24 21 21 20 17 15 17 18 13 13 12 11 15 21 29 27 24 14 3 3 331 188 155 134 121 137 123 111 82 74 92 94 97 101 101 95 93 94 88 87 85 82 82 87 82 64 46 9 18 29 38 37 26 38 53 75 89 82 76 85 95 97 92 93 82 59 34 36 25 16 30 60 54 50 43 39 52 43 40
32 30 30 30 31 32 29 25 22 18 14 14 19 16 20 23 19 24 23 23 24 35 34 21 17 5 22 1 36 103 99 88 79 81 90 74 88 93 91 92 92 93 95 94 96 90 84 83 82 86 82 62 37 19 29 32 35 38 40 50 59 82 77 70 68 72 78 82 82 81 81 72 49 37 21 8 18 36 55 51 48 41 38 42 58
35 32 27 29 29 27 27 25 19 21 19 20 18 14 29 32 29 31 28 30 28 32 34 37 20 18 23 27 17 37 71 68 64 71 60 42 45 89 95 95 92 90 89 92 83 86 87 85 80 79 78 62 33 24 32 36 39 39 56 64 75 85 75 69 57 56 65 72 73 74 76 68 59 52 22 33 38 47 49 40 35 24 31 41 48
36 38 37 31 25 25 27 30 30 27 28 23 15 17 33 35 37 31 33 32 34 32 26 31 36 16 33 31 26 26 50 57 61 61 66 65 35 48 76 92 90 86 88 84 91 88 89 86 77 70 76 66 44 23 34 39 41 40 59 62 68 73 78 72 64 63 65 67 68 70 75 74 61 51 34 45 44 61 57 48 38 25 16 28 14
30 43 43 35 29 31 37 40 38 36 28 22 19 25 38 41 38 36 37 37 36 33 25 26 33 24 38 37 29 22 32 61 55 56 55 57 64 51 42 52 85 90 83 82 85 82 74 74 75 72 72 77 56 31 42 46 47 47 59 70 73 83 84 86 79 69 72 72 67 71 73 69 64 51 40 45 41 53 59 55 49 36 24 7 355
21 30 38 29 25 31 34 35 35 34 19 14 11 27 43 44 41 40 42 42 37 31 27 26 25 29 39 44 38 26 10 50 59 51 47 52 53 52 63 59 65 76 79 78 76 80 76 67 68 75 74 75 66 41 44 55 54 54 61 60 66 82 86 87 93 84 76 77 67 55 63 72 79 72 59 50 41 50 71 61 56 70 38 17 356
20 18 19 29 22 27 29 30 28 19 10 16 8 28 44 48 48 48 49 47 42 36 28 26 27 33 40 46 44 38 20 35 55 51 44 47 50 52 55 64 60 66 75 73 72 71 73 63 59 69 68 70 70 55 48 57 59 59 67 75 59 69 78 90 94 100 91 74 69 64 56 61 64 58 56 55 53 53 63 45 51 66 48 9 336
25 23 16 20 15 19 27 30 25 20 16 8 8 26 37 38 44 52 53 53 55 51 43 39 35 39 40 43 42 42 33 35 46 50 44 43 41 46 55 60 63 63 69 67 69 73 77 72 60 59 71 64 71 73 54 58 59 58 58 73 74 70 73 82 82 75 79 83 70 58 56 58 68 71 66 55 59 50 47 33 30 40 46 242 334
19 21 23 25 24 23 20 16 12 12 17 17 16 20 25 31 42 45 39 44 53 55 53 47 46 43 43 39 39 33 31 32 34 37 39 42 38 42 52 62 64 65 69 75 77 80 80 79 70 60 63 68 63 66 70 57 62 60 58 59 75 73 83 98 83 78 78 81 89 93 61 32 35 46 55 76 76 46 345 72 306 9 22 6 351
8 12 14 18 25 21 19 18 13 11 3 12 23 29 22 25 40 30 24 29 39 49 56 58 53 51 47 47 42 40 36 35 35 34 40 41 35 38 36 39 48 58 64 70 79 92 99 91 85 69 58 59 58 62 63 61 56 62 61 61 64 65 54 68 86 86 74 68 87 99 117 11 357 7 13 12 21 41 123 166 248 7 307 287 295
11 3 2 11 21 16 13 9 9 9 10 5 19 28 25 24 24 11 23 29 41 48 49 48 60 63 61 55 53 50 45 39 36 36 36 36 36 36 37 36 39 45 55 87 96 102 104 104 96 84 69 51 42 53 45 43 47 47 53 60 61 58 56 71 74 83 75 53 22 14 349 332 346 348 0 4 2 5 353 340 2 154 177 217 221
21 20 15 21 21 14 5 8 5 9 4 9 9 21 23 25 11 9 23 32 32 44 47 48 43 48 59 69 61 55 48 44 40 42 45 38 32 32 33 19 31 37 35 43 60 108 123 124 109 99 92 73 49 43 40 26 29 35 39 43 52 56 51 59 68 61 63 44 356 340 340 342 341 340 356 30 43 32 19 350 328 319 329 19 344
22 13 15 24 14 8 8 5 3 2 6 2 8 18 22 9 11 15 10 23 42 35 36 37 36 37 48 64 70 62 61 66 66 63 64 59 58 45 41 28 33 30 38 49 43 41 41 70 107 101 77 61 47 44 39 32 22 25 30 35 46 51 56 65 66 46 22 26 3 339 342 350 353 3 17 21 23 16 17 34 34 37 36 22 2
21 348 302 330 338 356 9 5 3 353 0 3 5 12 29 13 5 6 11 14 18 37 39 31 28 29 40 53 58 71 72 63 61 67 64 63 67 73 67 53 41 41 47 50 48 49 53 66 84 80 76 63 52 38 29 34 29 23 26 24 34 36 44 45 32 16 7 5 352 360 341 339 10 44 68 71 60 47 45 38 42 45 46 40 36
212 220 238 256 252 232 31 357 354 343 7 4 4 11 26 19 5 7 0 12 25 33 48 40 21 23 42 64 71 63 63 57 51 49 51 54 59 69 80 64 44 39 71 66 68 64 63 69 84 91 91 75 57 42 21 14 13 19 22 33 36 39 30 28 20 4 348 344 346 352 27 50 58 55 48 47 43 45 47 41 35 36 35 33 32
224 236 245 255 287 287 255 319 333 321 8 0 354 340 2 7 15 20 14 23 23 20 30 25 21 24 21 57 96 86 89 90 83 69 57 42 31 55 76 70 23 353 7 112 99 83 87 82 79 73 78 66 51 41 14 321 326 9 36 22 26 21 16 28 26 0 339 354 19 42 48 52 58 58 49 43 37 37 31 30 30 25 25 28 31
242 259 251 277 291 301 308 234 287 295 343 11 357 336 4 24 20 32 28 33 36 30 17 11 11 14 1 351 75 124 117 110 105 102 96 72 55 56 49 73 59 23 34 27 59 112 126 113 89 56 47 96 101 123 231 327 346 21 23 29 26 36 47 38 3 9 59 37 22 51 54 61 57 57 53 46 42 45 42 32 21 23 29 34 33
255 250 292 327 335 8 49 103 41 359 1 348 8 357 29 31 34 24 36 36 44 42 24 11 11 2 360 343 339 78 130 131 109 102 89 96 84 47 47 54 64 52 40 39 45 53 67 81 105 100 50 73 101 112 131 65 36 17 4 359 19 80 70 51 13 26 38 47 42 62 56 57 59 63 58 50 48 47 38 39 25 24 30 35 34